Simultaneous Nadir Overpasses (SNOs) Predictions

Prediction of SNOs between GOES-16 and TERRA Satellite Orbit:

Table of predicted SNOs for the next 14.0 days since TLE Epoch: 10/1/2022
Index Date Time (GOES-16) GOES-16 Lat,Lon TERRA Lat,Lon Distance(km) Time Diff (sec)
1 10/03/2022 03:12:04 0.06, -75.19 0.15, -74.65 61.04 80
2 10/05/2022 02:59:47 0.06, -75.20 0.81, -71.69 398.88 80
3 10/05/2022 15:21:00 -0.06, -75.21 0.29, -76.85 186.22 80
4 10/07/2022 15:11:22 -0.05, -75.23 -0.33, -73.88 152.96 80
5 10/08/2022 03:32:45 0.05, -75.23 -0.74, -79.08 437.46 80
6 10/09/2022 14:59:05 -0.05, -75.26 -0.95, -70.92 493.07 80
7 10/10/2022 03:20:27 0.05, -75.26 -0.11, -76.12 97.15 80
8 10/12/2022 03:05:29 0.05, -75.29 0.53, -73.15 243.84 80
9 10/12/2022 15:26:43 -0.05, -75.31 0.56, -78.31 340.69 80
10 10/14/2022 15:14:24 -0.05, -75.34 -0.04, -75.33 1.18 80
